This is the latest recevied weather packets stored in our database for station/object F8BJE-13. If no packets are shown the sender has not sent any weather packets the latest 10 day(s).
| Time | Temp. | Humidity | Pressure | Rain* | Wind** | Luminosity | Snow |
|---|---|---|---|---|---|---|---|
| 1777870657 | 11.67° C | 73% | 1014.2 hPa | 0 mm | - | - | - |
| 1777868857 | 11.11° C | 74% | 1014.2 hPa | 0 mm | - | - | - |
| 1777867056 | 11.11° C | 74% | 1013.7 hPa | 0.25 mm | - | - | - |
| 1777865257 | 10.56° C | 73% | 1014.1 hPa | 0.25 mm | - | - | - |
| 1777863456 | 11.11° C | 72% | 1014.3 hPa | 0 mm | - | - | - |
| 1777861657 | 11.11° C | 71% | 1014.3 hPa | 0 mm | - | - | - |
| 1777859857 | 11.11° C | 70% | 1014.1 hPa | 0 mm | - | - | - |
| 1777858057 | 11.11° C | 69% | 1014.2 hPa | 0 mm | - | - | - |
| 1777856255 | 11.11° C | 69% | 1014.4 hPa | 0 mm | - | - | - |
| 1777854455 | 11.67° C | 67% | 1014.3 hPa | 0 mm | - | - | - |
| 1777852655 | 11.67° C | 68% | 1014.4 hPa | 0 mm | - | - | - |
| 1777850856 | 11.67° C | 68% | 1014.4 hPa | 0 mm | - | - | - |
| 1777849055 | 12.22° C | 64% | 1014.6 hPa | 0 mm | - | - | - |
| 1777847257 | 12.78° C | 64% | 1014.6 hPa | 0 mm | - | - | - |
| 1777845457 | 13.33° C | 62% | 1014.5 hPa | 0 mm | - | - | - |
| 1777843656 | 13.33° C | 61% | 1014.5 hPa | 0 mm | - | - | - |
| 1777841856 | 13.89° C | 60% | 1014.2 hPa | 0 mm | - | - | - |
| 1777840057 | 14.44° C | 58% | 1014.1 hPa | 0 mm | - | - | - |
| 1777838257 | 14.44° C | 54% | 1014.1 hPa | 0 mm | - | - | - |
| 1777836456 | 15° C | 51% | 1013.7 hPa | 0 mm | - | - | - |
| 1777834656 | 15.56° C | 46% | 1013.8 hPa | 0 mm | - | - | - |
| 1777832857 | 15.56° C | 44% | 1013.5 hPa | 0 mm | - | - | - |
| 1777831056 | 16.11° C | 44% | 1013.3 hPa | 0 mm | - | - | - |
| 1777829256 | 16.67° C | 40% | 1013.7 hPa | 0 mm | - | - | - |
| 1777827456 | 17.22° C | 40% | 1013.9 hPa | 0 mm | - | - | - |
* Rain latest hour (hover to see other rain measurements)
** Current wind speed in m/s (hover to see current wind gust speed)